This is the latest recevied weather packets stored in our database for station/object AJ4FJ-13. If no packets are shown the sender has not sent any weather packets the latest 1 day(s).
| Time | Temp. | Humidity | Pressure | Rain* | Wind** | Luminosity | Snow |
|---|---|---|---|---|---|---|---|
| 1778105871 | 26.11° C | 71% | 1014 hPa | 0 mm | 0 m/s | - | - |
| 1778104058 | 27.78° C | 65% | 1013 hPa | 0 mm | 0 m/s | - | - |
| 1778090683 | 26.67° C | 67% | 1016 hPa | 0 mm | 0 m/s | - | - |
| 1778085838 | 29.44° C | 56% | 1015 hPa | 0 mm | 1.34 m/s, 2° | - | - |
| 1778082502 | 26.67° C | 65% | 1014 hPa | 0 mm | 1.79 m/s, 255° | - | - |
| 1778079782 | 21.67° C | 80% | 1016 hPa | 0 mm | 1.34 m/s, 316° | - | - |
| 1778079177 | 21.67° C | 80% | 1016 hPa | 0 mm | 1.79 m/s, 249° | - | - |
| 1778078944 | 21.67° C | 81% | 1015 hPa | 0 mm | 1.79 m/s, 266° | - | - |
| 1778040261 | 20° C | 68% | 1013 hPa | 0 mm | 0 m/s | - | - |
| 1778040222 | 20° C | 68% | 1013 hPa | 0 mm | 0 m/s | - | - |
| 1778039317 | 20° C | 69% | 1013 hPa | 0 mm | 0 m/s | - | - |
| 1778038714 | 20° C | 68% | 1013 hPa | 0 mm | 0 m/s | - | - |
| 1778038412 | 20° C | 68% | 1013 hPa | 0 mm | 0 m/s | - | - |
| 1778037506 | 20° C | 70% | 1014 hPa | 0 mm | 0 m/s | - | - |
| 1778036903 | 20° C | 71% | 1014 hPa | 0 mm | 0 m/s | - | - |
| 1778036601 | 20° C | 71% | 1014 hPa | 0 mm | 0 m/s | - | - |
| 1778036299 | 20° C | 71% | 1014 hPa | 0 mm | 0 m/s | - | - |
| 1778035394 | 20.56° C | 69% | 1014 hPa | 0 mm | 0 m/s | - | - |
| 1778035092 | 20.56° C | 68% | 1014 hPa | 0 mm | 0 m/s | - | - |
| 1778034790 | 20.56° C | 68% | 1014 hPa | 0 mm | 0 m/s | - | - |
| 1778033885 | 20.56° C | 64% | 1014 hPa | 0 mm | 0 m/s | - | - |
| 1778033583 | 20.56° C | 66% | 1014 hPa | 0 mm | 0 m/s | - | - |
| 1778029961 | 21.11° C | 63% | 1014 hPa | 0 mm | 0 m/s | - | - |
| 1778027544 | 22.22° C | 57% | 1014 hPa | 0 mm | 0 m/s | - | - |
| 1778026638 | 22.78° C | 53% | 1014 hPa | 0 mm | 0 m/s | - | - |
* Rain latest hour (hover to see other rain measurements)
** Current wind speed in m/s (hover to see current wind gust speed)